Showing default

ORBITER SN3, 56960

Orbit data source: Space-Track

ORBITER SN3, 56960 is a payload satellite owned by Launcher Inc (US) in SSO that was launched on Mon, 12 Jun 2023 UTC via an FALCON 9 launch vehicle from the Air Force Western Test Range (AFWTR). Payload-class satellites include a variety of spacecraft equipped with specific instruments for various scientific and technological missions. These include communications satellites like Starlink; space stations such as the ISS; scientific satellites like the Hubble; Earth observation satellites from companies like Planet Labs, Umbra, and HawkEye 360; GPS; miniature CubeSats for education and research; and military/defense satellites.

Loading next visibility...
Identifier
56960, 2023-084AE
Orbit
SSO
Country
Flag of USUS
Related business
Manufacturer
Launcher Inc
Mission
Operational Commercial Technology
Bus & Motor
LAORB1, AOCS
Mass
223 kg wet, ~150 kg dry
Launch date (UTC)
2023-06-12 (3 years ago)
Launch vehicle
FALCON 9
Launch site
Air Force Western Test Range (AFWTR)
Object type
Payload
Rocket body
Debris
Shape & HBR
Oct Cyl, 0.5 m
Radar Cross Section
0.583 m², Medium (>0.1 m² and < 1m²)

Expand to show TLE details & history
Last TLE update: 13 hours ago

TLE from 13 hours ago
0 ORBITER SN3
1 56960U 23084AE  26034.62337646  .00010415  00000-0  33700-3 0  9992
2 56960  97.6052 171.3763 0009605  87.3523 272.8818 15.32207437147027
Epoch: 2026-02-03T14:57Z
TLE epoch observation values (Epoch: 2026-02-03T14:57:39.726Z)
Latitude
0.00005°
Longitude
173.15912°
Altitude
472.004 km
Speed
7.63 km/s
True Right ascension
11h 25m 30s
True Declination
0° 00' 00"
Sunlit
Object was in full shadow at epoch
Visualization orbit readout
Latitude
Unknown
Longitude
Unknown
Altitude
Unknown
Speed
Unknown
Apparent Right ascension
Unknown
Apparent Declination
Unknown
Sunlit
N/A
Visualization observer readout
Local Sidereal Time
05:39:48
Azimuth
Unknown
Elevation
Unknown
Doppler factor
Unknown
Orbital elements
Apogee altitude
472.76 km
Perigee altitude
459.612 km
Semi-major axis
6,844.323 km
Eccentricity
0.00096
Inclination
97.6052°
RAAN
171.3763°
Arg. of periapsis
87.3523°
True anomaly
272.77187°
Mean anomaly
272.8818°
Eccentric anomaly
272.82683°
Mean motion
3.83308 °/min
Orbital period
93.92 mins
BSTAR
0.000337
Loading maneuver chart data...
Computing Atmospheric mass density...

Documentation

Showing up to 5 results
|